When you browse on this site, cookies collect data to enhance your experience and personalize the content and advertising you see.
Visit our Privacy Policy to learn more. By continuing to use the site, you agree to this use of cookies and data.
  • In Slovakia
  • List of Countries
  • For 7 days
  • Water Temperature
  • Weather Map
  • Weather Widgets
  • user-avatar
    Login

    Hourly Weather Panozero

    Today, 31 March, Tuesday

    Time Temperature Precipitation Wind Pressure Humidity
    00:00 -10°C° 0 mm 3 mps 756 mmHg 87%
    01:00 -12°C° 0 mm 3 mps 756 mmHg 88%
    02:00 -10°C° 0 mm 2 mps 756 mmHg 90%
    03:00 -10°C° 0 mm 2 mps 755 mmHg 90%
    04:00 -12°C° 0 mm 2 mps 755 mmHg 91%
    05:00 -12°C° 0 mm 2 mps 754 mmHg 92%
    06:00 -12°C° 0 mm 3 mps 754 mmHg 89%
    07:00 -10°C° 0 mm 3 mps 753 mmHg 85%
    08:00 -9°C° 0 mm 3 mps 753 mmHg 82%
    09:00 -8°C° 0 mm 4 mps 752 mmHg 75%
    10:00 -7°C° 0 mm 4 mps 751 mmHg 69%
    11:00 -6°C° 0 mm 5 mps 749 mmHg 62%
    12:00 -6°C° 0 mm 5 mps 748 mmHg 59%
    13:00 -6°C° 0 mm 6 mps 747 mmHg 56%
    14:00 -6°C° 0 mm 6 mps 746 mmHg 53%
    15:00 -7°C° 0 mm 7 mps 745 mmHg 61%
    16:00 -8°C° 0 mm 7 mps 743 mmHg 69%
    17:00 -8°C° 0 mm 7 mps 742 mmHg 78%
    18:00 -8°C° 0.3 mm 7 mps 740 mmHg 82%
    19:00 -9°C° 0.3 mm 6 mps 739 mmHg 87%
    20:00 -9°C° 0.3 mm 6 mps 738 mmHg 91%
    21:00 -8°C° 0.4 mm 6 mps 737 mmHg 91%
    22:00 -7°C° 0.4 mm 5 mps 736 mmHg 92%
    23:00 -7°C° 0.4 mm 5 mps 735 mmHg 92%

    Tomorrow, 1 April, Wednesday

    Time Temperature Precipitation Wind Pressure Humidity
    00:00 -7°C° 0.1 mm 4 mps 734 mmHg 92%
    01:00 -5°C° 0.1 mm 4 mps 734 mmHg 92%
    02:00 -5°C° 0.1 mm 3 mps 734 mmHg 92%
    03:00 -5°C° 0 mm 3 mps 733 mmHg 94%
    04:00 -4°C° 0 mm 2 mps 732 mmHg 95%
    05:00 -5°C° 0 mm 2 mps 732 mmHg 96%
    06:00 -4°C° 0 mm 2 mps 732 mmHg 94%
    07:00 -4°C° 0 mm 2 mps 732 mmHg 92%
    08:00 -3°C° 0 mm 2 mps 731 mmHg 90%
    09:00 0°C° 0 mm 1 mps 731 mmHg 88%
    10:00 +1°C° 0 mm 1 mps 731 mmHg 85%
    11:00 +1°C° 0 mm 1 mps 731 mmHg 83%
    12:00 +2°C° 0.1 mm 1 mps 731 mmHg 81%
    13:00 +2°C° 0.1 mm 1 mps 731 mmHg 80%
    14:00 +2°C° 0.1 mm 1 mps 731 mmHg 79%
    15:00 +2°C° 0.1 mm 1 mps 731 mmHg 81%
    16:00 +2°C° 0.1 mm 1 mps 731 mmHg 83%
    17:00 +1°C° 0.1 mm 1 mps 731 mmHg 86%
    18:00 0°C° 0 mm 1 mps 731 mmHg 88%
    19:00 -1°C° 0 mm 1 mps 731 mmHg 91%
    20:00 -2°C° 0 mm 1 mps 732 mmHg 93%
    21:00 -3°C° 0 mm 1 mps 732 mmHg 94%
    22:00 -3°C° 0 mm 1 mps 732 mmHg 95%
    23:00 -3°C° 0 mm 1 mps 732 mmHg 96%

    Day after tomorrow, 2 April, Thursday

    Time Temperature Precipitation Wind Pressure Humidity
    00:00 -3°C° 0 mm 1 mps 732 mmHg 96%
    01:00 -6°C° 0 mm 2 mps 732 mmHg 96%
    02:00 -6°C° 0 mm 2 mps 732 mmHg 96%
    03:00 -6°C° 0 mm 2 mps 732 mmHg 96%
    04:00 -7°C° 0 mm 2 mps 732 mmHg 95%
    05:00 -7°C° 0 mm 2 mps 732 mmHg 95%
    06:00 -7°C° 0 mm 2 mps 732 mmHg 93%
    07:00 -6°C° 0 mm 2 mps 732 mmHg 90%
    08:00 -7°C° 0 mm 3 mps 732 mmHg 88%
    09:00 -6°C° 0 mm 3 mps 732 mmHg 85%
    10:00 -5°C° 0 mm 3 mps 732 mmHg 81%
    11:00 -4°C° 0 mm 3 mps 732 mmHg 78%
    12:00 -4°C° 0 mm 3 mps 731 mmHg 76%
    13:00 -2°C° 0 mm 3 mps 731 mmHg 74%
    14:00 -2°C° 0 mm 3 mps 731 mmHg 71%
    15:00 -2°C° 0 mm 3 mps 731 mmHg 72%
    16:00 -2°C° 0 mm 2 mps 730 mmHg 73%
    17:00 -2°C° 0 mm 2 mps 729 mmHg 75%
    18:00 -3°C° 0 mm 2 mps 729 mmHg 80%
    19:00 -4°C° 0 mm 3 mps 728 mmHg 86%
    20:00 -5°C° 0 mm 3 mps 728 mmHg 91%
    21:00 -5°C° 0.3 mm 3 mps 727 mmHg 93%
    22:00 -5°C° 0.3 mm 3 mps 726 mmHg 94%
    23:00 -4°C° 0.3 mm 4 mps 725 mmHg 96%

    3 April, Friday

    Time Temperature Precipitation Wind Pressure Humidity
    00:00 -3°C° 0.5 mm 4 mps 724 mmHg 95%
    01:00 -2°C° 0.5 mm 4 mps 724 mmHg 95%
    02:00 -2°C° 0.5 mm 4 mps 723 mmHg 94%
    03:00 -2°C° 0.2 mm 4 mps 722 mmHg 94%
    04:00 -2°C° 0.2 mm 5 mps 721 mmHg 95%
    05:00 -2°C° 0.2 mm 5 mps 720 mmHg 95%
    06:00 -2°C° 0.8 mm 5 mps 720 mmHg 95%
    07:00 -2°C° 0.8 mm 5 mps 719 mmHg 96%
    08:00 -2°C° 0.8 mm 5 mps 719 mmHg 96%
    09:00 -1°C° 0.3 mm 5 mps 719 mmHg 88%
    10:00 -1°C° 0.3 mm 5 mps 720 mmHg 80%
    11:00 -1°C° 0.3 mm 5 mps 720 mmHg 72%
    12:00 0°C° 0.1 mm 5 mps 720 mmHg 73%
    13:00 0°C° 0.1 mm 5 mps 721 mmHg 73%
    14:00 0°C° 0.1 mm 4 mps 721 mmHg 73%
    15:00 0°C° 0.1 mm 4 mps 721 mmHg 77%
    16:00 +1°C° 0.1 mm 3 mps 721 mmHg 80%
    17:00 +1°C° 0.1 mm 2 mps 722 mmHg 83%
    18:00 -1°C° 0 mm 3 mps 722 mmHg 86%
    19:00 -2°C° 0 mm 3 mps 723 mmHg 89%
    20:00 -4°C° 0 mm 3 mps 723 mmHg 92%
    21:00 -4°C° 0.1 mm 4 mps 724 mmHg 92%
    22:00 -5°C° 0.1 mm 5 mps 725 mmHg 92%
    23:00 -5°C° 0.1 mm 6 mps 726 mmHg 92%

    4 April, Saturday

    Time Temperature Precipitation Wind Pressure Humidity
    00:00 -6°C° 0.1 mm 6 mps 726 mmHg 90%
    01:00 -6°C° 0.1 mm 6 mps 727 mmHg 89%
    02:00 -8°C° 0.1 mm 6 mps 728 mmHg 87%
    03:00 -8°C° 0 mm 6 mps 728 mmHg 86%
    04:00 -9°C° 0 mm 6 mps 729 mmHg 86%
    05:00 -9°C° 0 mm 6 mps 730 mmHg 85%
    06:00 -9°C° 0 mm 6 mps 730 mmHg 85%
    07:00 -9°C° 0 mm 6 mps 731 mmHg 84%
    08:00 -8°C° 0 mm 6 mps 731 mmHg 84%
    09:00 -8°C° 0.1 mm 6 mps 732 mmHg 84%
    10:00 -6°C° 0.1 mm 6 mps 732 mmHg 84%
    11:00 -6°C° 0.1 mm 6 mps 733 mmHg 84%
    12:00 -5°C° 0.5 mm 6 mps 734 mmHg 85%
    13:00 -5°C° 0.5 mm 6 mps 734 mmHg 86%
    14:00 -6°C° 0.5 mm 7 mps 735 mmHg 87%
    15:00 -6°C° 0.1 mm 7 mps 736 mmHg 80%
    16:00 -6°C° 0.1 mm 7 mps 737 mmHg 74%
    17:00 -6°C° 0.1 mm 7 mps 738 mmHg 67%
    18:00 -6°C° 0 mm 7 mps 738 mmHg 68%
    19:00 -7°C° 0 mm 7 mps 739 mmHg 69%
    20:00 -6°C° 0 mm 6 mps 740 mmHg 70%
    21:00 -8°C° 0 mm 6 mps 740 mmHg 70%
    22:00 -8°C° 0 mm 6 mps 741 mmHg 69%
    23:00 -9°C° 0 mm 6 mps 742 mmHg 69%

    5 April, Sunday

    Time Temperature Precipitation Wind Pressure Humidity
    00:00 -9°C° 0 mm 6 mps 742 mmHg 70%
    01:00 -9°C° 0 mm 6 mps 743 mmHg 71%
    02:00 -9°C° 0 mm 6 mps 743 mmHg 71%
    03:00 -10°C° 0 mm 6 mps 744 mmHg 72%
    04:00 -10°C° 0 mm 6 mps 744 mmHg 73%
    05:00 -11°C° 0 mm 7 mps 744 mmHg 74%
    06:00 -11°C° 0 mm 7 mps 745 mmHg 72%
    07:00 -9°C° 0 mm 7 mps 745 mmHg 70%
    08:00 -9°C° 0 mm 7 mps 746 mmHg 68%
    09:00 -8°C° 0 mm 7 mps 746 mmHg 66%
    10:00 -7°C° 0 mm 7 mps 747 mmHg 65%
    11:00 -6°C° 0 mm 7 mps 747 mmHg 64%
    12:00 -6°C° 0 mm 7 mps 748 mmHg 61%
    13:00 -4°C° 0 mm 7 mps 748 mmHg 58%
    14:00 -4°C° 0 mm 7 mps 749 mmHg 55%
    15:00 -4°C° 0 mm 7 mps 749 mmHg 57%
    16:00 -5°C° 0 mm 6 mps 750 mmHg 59%
    17:00 -5°C° 0 mm 5 mps 750 mmHg 61%
    18:00 -5°C° 0 mm 4 mps 750 mmHg 65%
    19:00 -6°C° 0 mm 3 mps 750 mmHg 70%
    20:00 -8°C° 0 mm 3 mps 750 mmHg 75%
    21:00 -7°C° 0 mm 2 mps 750 mmHg 77%
    22:00 -8°C° 0 mm 2 mps 749 mmHg 80%
    23:00 -8°C° 0 mm 2 mps 749 mmHg 82%
    Show more